Middleton, WI

8:04 PM CDT on September 19, 2019 (GMT -0500)
Middleton

Weather History for KC29 - August, 2019

Change the Weather History Date:

Sunday, August 18, 2019

  Actual Average (KMSN) Record (KMSN)
Temperature  
Mean Temperature 69 °F -  
Max Temperature 75 °F 79 °F 101 °F (1936)
Min Temperature 63 °F 56 °F 41 °F (1977)
Cooling Degree Days 4    
Growing Degree Days 19 (Base 50)    
Moisture  
Dew Point 17 °F    
Average Humidity 15    
Maximum Humidity 26    
Minimum Humidity 4    
Precipitation  
Precipitation 0.55 in - - ()
Sea Level Pressure  
Sea Level Pressure 29.82 in    
Wind  
Wind Speed 6 mph (WSW)    
Max Wind Speed 21 mph    
Max Gust Speed 29 mph    
Visibility 10 miles    
Events      
Averages and records for this station are not official NWS values.
T = Trace of Precipitation, MM = Missing Value Source: NWS Daily Summary

Daily Weather History Graph

Daily Weather History Graph

Search for Another Location

Airport or City:

Astronomy

Aug. 18, 2019 Rise Set
Actual Time 6:06 AM CDT 7:56 PM CDT
Civil Twilight 5:36 AM CDT 8:26 PM CDT
Nautical Twilight 4:59 AM CDT 9:03 PM CDT
Astronomical Twilight 4:18 AM CDT 9:43 PM CDT
Moon 9:46 PM CDT (8/18) 8:55 AM CDT (8/18)
Length of Visible Light 14h 50m
Length of Day
13h 49m
Waning Gibbous, 91% of the Moon is Illuminated
Aug 18
Waning Gibbous
Aug 23
Last Quarter
Aug 30
New
Sep 5
First Quarter
Sep 13
Full

Hourly Weather History & Observations

Time (CDT) Temp. Dew Point Humidity Pressure Visibility Wind Dir Wind Speed Gust Speed Precip Events Conditions
12:15 AM 71.6 °F 23.2 °F 16% 29.86 in 10.0 mi Calm Calm - N/A   Scattered Clouds
12:35 AM 71.8 °F 22.1 °F 15% 29.86 in 10.0 mi South 3.5 mph - N/A   Scattered Clouds
12:55 AM 71.6 °F 21.9 °F 15% 29.85 in 10.0 mi Calm Calm - N/A   Scattered Clouds
1:15 AM 71.4 °F 21.6 °F 15% 29.85 in 10.0 mi Calm Calm - N/A   Clear
1:35 AM 70.9 °F 22.1 °F 16% 29.84 in 10.0 mi Calm Calm - N/A   Scattered Clouds
1:55 AM 70.9 °F 22.1 °F 16% 29.83 in 10.0 mi SSW 3.5 mph - N/A   Scattered Clouds
2:15 AM 70.9 °F 21.7 °F 16% 29.80 in 10.0 mi South 15.0 mph 21.9 mph N/A   Mostly Cloudy
2:35 AM 71.2 °F 20.3 °F 15% 29.82 in 10.0 mi SSW 9.2 mph - 0.01 in   Scattered Clouds
2:55 AM 70.7 °F 22.8 °F 16% 29.83 in 10.0 mi Calm Calm - 0.01 in   Mostly Cloudy
3:15 AM 70.2 °F 23.7 °F 17% 29.79 in 10.0 mi Calm Calm - N/A   Scattered Clouds
3:35 AM 69.8 °F 24.8 °F 18% 29.77 in 10.0 mi SSE 6.9 mph - N/A   Clear
3:55 AM 69.8 °F 25.0 °F 19% 29.74 in 10.0 mi SE 5.8 mph - N/A   Clear
4:15 AM 69.8 °F 25.0 °F 19% 29.72 in 10.0 mi SSE 5.8 mph - N/A   Scattered Clouds
4:35 AM 69.8 °F 25.2 °F 19% 29.74 in 10.0 mi South 3.5 mph - N/A   Mostly Cloudy
4:55 AM 70.0 °F 25.9 °F 19% 29.73 in 10.0 mi Calm Calm - N/A   Scattered Clouds
5:15 AM 70.3 °F 25.7 °F 19% 29.73 in 10.0 mi South 8.1 mph - N/A   Scattered Clouds
5:35 AM 70.2 °F 25.7 °F 19% 29.72 in 10.0 mi South 4.6 mph - N/A   Clear
5:55 AM 70.7 °F 25.3 °F 18% 29.76 in 10.0 mi West 18.4 mph 23.0 mph N/A   Mostly Cloudy
6:15 AM 68.5 °F 21.0 °F 16% 29.77 in 1.8 mi WSW 10.4 mph 24.2 mph 0.19 in   Overcast
6:35 AM 67.6 °F 23.9 °F 19% 29.78 in 10.0 mi West 9.2 mph - 0.25 in   Overcast
6:55 AM 67.5 °F 23.9 °F 19% 29.81 in 7.0 mi SW 8.1 mph - 0.32 in   Overcast
7:15 AM 67.1 °F 24.3 °F 20% 29.83 in 7.0 mi WSW 6.9 mph - 0.07 in   Overcast
7:35 AM 66.7 °F 22.6 °F 19% 29.85 in 7.0 mi SW 13.8 mph 19.6 mph 0.14 in   Overcast
7:55 AM 66.7 °F 19.0 °F 16% 29.85 in 7.0 mi SW 13.8 mph - 0.20 in   Overcast
8:15 AM 66.2 °F 18.0 °F 16% 29.81 in 10.0 mi SSW 13.8 mph 20.7 mph 0.02 in   Mostly Cloudy
8:35 AM 66.2 °F 18.1 °F 16% 29.75 in 10.0 mi SSE 9.2 mph 18.4 mph 0.02 in   Mostly Cloudy
8:55 AM 66.4 °F 17.6 °F 15% 29.72 in 10.0 mi Calm Calm - 0.02 in   Mostly Cloudy
9:15 AM 67.1 °F 17.8 °F 15% 29.73 in 10.0 mi WNW 9.2 mph - N/A   Scattered Clouds
9:35 AM 67.1 °F 16.3 °F 14% 29.74 in 10.0 mi SW 18.4 mph 24.2 mph N/A   Mostly Cloudy
9:55 AM 67.6 °F 18.1 °F 15% 29.73 in 10.0 mi West 9.2 mph - N/A   Scattered Clouds
10:15 AM 68.4 °F 15.1 °F 13% 29.73 in 10.0 mi West 17.3 mph 23.0 mph N/A   Clear
10:35 AM 68.4 °F 12.9 °F 12% 29.73 in 10.0 mi West 19.6 mph 26.5 mph N/A   Clear
10:55 AM 68.9 °F 10.2 °F 10% 29.73 in 10.0 mi West 19.6 mph 28.8 mph N/A   Clear
11:15 AM 69.8 °F 4.5 °F 8% 29.73 in 10.0 mi WNW 20.7 mph 28.8 mph N/A   Clear
11:35 AM 71.1 °F -1.7 °F 6% 29.74 in 10.0 mi West 19.6 mph 27.6 mph N/A   Clear
11:55 AM 71.8 °F -7.8 °F 4% 29.77 in 10.0 mi West 17.3 mph 28.8 mph N/A   Clear
12:15 PM 72.5 °F -9.8 °F 4% 29.80 in 10.0 mi WNW 16.1 mph 27.6 mph N/A   Clear
12:35 PM 73.2 °F -8.0 °F 4% 29.81 in 10.0 mi West 12.7 mph 19.6 mph N/A   Clear
12:55 PM 74.5 °F -13.0 °F 4% 29.82 in 10.0 mi West 9.2 mph 16.1 mph N/A   Clear
1:15 PM 74.8 °F -24.7 °F 4% 29.82 in 10.0 mi WNW 11.5 mph 18.4 mph N/A   Clear
1:35 PM - - N/A% 29.83 in 10.0 mi WNW 12.7 mph - N/A   Mostly Cloudy
1:55 PM - - N/A% 29.84 in 10.0 mi NW 10.4 mph 19.6 mph N/A   Scattered Clouds
2:15 PM - - N/A% 29.85 in 10.0 mi NW 9.2 mph - N/A   Scattered Clouds
2:35 PM - - N/A% 29.84 in 10.0 mi NW 11.5 mph 16.1 mph N/A   Scattered Clouds
2:55 PM - - N/A% 29.84 in 10.0 mi NNW 9.2 mph - N/A   Scattered Clouds
3:15 PM - - N/A% 29.84 in 10.0 mi North 6.9 mph - N/A   Scattered Clouds
3:35 PM - - N/A% 29.84 in 10.0 mi NNW 8.1 mph - N/A   Clear
3:55 PM - - N/A% 29.84 in 10.0 mi NNW 6.9 mph - N/A   Scattered Clouds
4:15 PM - - N/A% 29.85 in 10.0 mi West 10.4 mph - N/A   Scattered Clouds
4:35 PM - - N/A% 29.86 in 10.0 mi West 5.8 mph - N/A   Scattered Clouds
4:55 PM - - N/A% 29.86 in 10.0 mi West 5.8 mph - N/A   Scattered Clouds
5:15 PM - - N/A% 29.87 in 10.0 mi West 4.6 mph - N/A   Scattered Clouds
5:35 PM - - N/A% 29.87 in 10.0 mi West 3.5 mph - N/A   Mostly Cloudy
5:55 PM - - N/A% 29.87 in 10.0 mi West 5.8 mph - N/A   Mostly Cloudy
6:15 PM - - N/A% 29.87 in 10.0 mi WSW 4.6 mph - N/A   Scattered Clouds
6:35 PM - - N/A% 29.86 in 10.0 mi WSW 3.5 mph - N/A   Clear
6:55 PM 75.7 °F -9.4 °F 4% 29.86 in 10.0 mi West 3.5 mph - N/A   Scattered Clouds
7:15 PM 74.3 °F 3.7 °F 6% 29.87 in 10.0 mi WSW 3.5 mph - N/A   Scattered Clouds
7:35 PM 74.1 °F -8.3 °F 4% 29.87 in 10.0 mi SW 3.5 mph - N/A   Scattered Clouds
7:55 PM 71.6 °F 6.4 °F 8% 29.87 in 10.0 mi Calm Calm - N/A   Clear
8:15 PM 69.8 °F 15.1 °F 12% 29.87 in 10.0 mi Calm Calm - N/A   Clear
8:35 PM 68.5 °F 19.4 °F 15% 29.88 in 10.0 mi Calm Calm - N/A   Clear
8:55 PM 67.3 °F 21.7 °F 18% 29.89 in 10.0 mi Calm Calm - N/A   Clear
9:15 PM 66.6 °F 25.5 °F 21% 29.89 in 10.0 mi Calm Calm - N/A   Clear
9:35 PM 65.3 °F 23.7 °F 21% 29.90 in 10.0 mi Calm Calm - N/A   Clear
9:55 PM 65.3 °F 28.4 °F 25% 29.90 in 10.0 mi Calm Calm - N/A   Clear
10:15 PM 65.3 °F 29.1 °F 26% 29.91 in 10.0 mi Calm Calm - N/A   Clear
10:35 PM 64.9 °F 28.6 °F 25% 29.91 in 10.0 mi Calm Calm - N/A   Clear
10:55 PM 64.6 °F 28.6 °F 26% 29.91 in 10.0 mi Calm Calm - N/A   Clear
11:15 PM 64.0 °F 28.2 °F 26% 29.92 in 10.0 mi Calm Calm - N/A   Clear
11:35 PM 63.9 °F 28.4 °F 26% 29.92 in 10.0 mi Calm Calm - N/A   Clear
11:55 PM 63.9 °F 28.4 °F 26% 29.93 in 10.0 mi Calm Calm - N/A   Clear